Change the Weather History Date:

Tuesday, November 30, 2010

  Actual Average Record
Temperature  
Mean Temperature 38 °F -  
Max Temperature 44 °F 52 °F 73 °F (2014)
Min Temperature 33 °F 36 °F 24 °F (2005)
Degree Days  
Heating Degree Days 26    
Moisture  
Dew Point 25 °F    
Average Humidity 61    
Maximum Humidity 71    
Minimum Humidity 52    
Precipitation  
Precipitation 0.00 in - - ()
Sea Level Pressure  
Sea Level Pressure 30.00 in    
Wind  
Wind Speed 15 mph (WNW)    
Max Wind Speed 22 mph    
Max Gust Speed 38 mph    
Visibility 10 miles    
Events      
Averages and records for this station are not official NWS values.
T = Trace of Precipitation, MM = Missing Value Source: NWS Daily Summary

Daily Weather History Graph

Daily Weather History Graph

Search for Another Location

Airport or City:

Trip Planner

Search our weather history database for the weather conditions in past years. The results will help you decide how hot, cold, wet, or windy it might be!

Date:

Astronomy

Nov. 30, 2010 Rise Set
Actual Time 6:55 AM CST 4:49 PM CST
Civil Twilight 6:27 AM CST 5:17 PM CST
Nautical Twilight 5:55 AM CST 5:49 PM CST
Astronomical Twilight 5:24 AM CST 6:20 PM CST
Moon 1:19 AM CST (11/30) 1:12 PM CST (11/30)
Length of Visible Light 10h 50m
Length of Day
9h 54m
Waning Crescent, 29% of the Moon is Illuminated
Nov 30
Waning Crescent
Dec 5
New
Dec 13
First Quarter
Dec 21
Full
Dec 27
Last Quarter

Hourly Weather History & Observations

Time (CST) Temp. Windchill Dew Point Humidity Pressure Visibility Wind Dir Wind Speed Gust Speed Precip Events Conditions
12:15 AM 44.6 °F 36.1 °F 35.6 °F 71% 29.82 in 10.0 mi WNW 21.9 mph 38.0 mph N/A   Partly Cloudy
12:35 AM 42.8 °F 35.1 °F 33.8 °F 70% 29.78 in 10.0 mi NW 16.1 mph - N/A   Clear
12:55 AM 42.8 °F 35.1 °F 33.8 °F 70% 29.82 in 10.0 mi WNW 16.1 mph 27.6 mph N/A   Clear
1:15 AM 41.0 °F 32.5 °F 30.2 °F 65% 29.83 in 10.0 mi WNW 17.3 mph 24.2 mph N/A   Clear
1:35 AM 41.0 °F 32.8 °F 30.2 °F 65% 29.85 in 10.0 mi WNW 16.1 mph 21.9 mph N/A   Clear
1:55 AM 39.2 °F 29.8 °F 30.2 °F 70% 29.84 in 10.0 mi WNW 18.4 mph 25.3 mph N/A   Clear
2:15 AM 39.2 °F 29.8 °F 30.2 °F 70% 29.85 in 10.0 mi WNW 18.4 mph 23.0 mph N/A   Clear
2:35 AM 39.2 °F 29.8 °F 30.2 °F 70% 29.88 in 10.0 mi WNW 18.4 mph 25.3 mph N/A   Clear
3:15 AM 37.4 °F 29.8 °F 28.4 °F 70% 29.88 in 10.0 mi West 11.5 mph - N/A   Clear
3:35 AM 37.4 °F 30.3 °F 28.4 °F 70% 29.90 in 10.0 mi WNW 10.4 mph - N/A   Mostly Cloudy
3:55 AM 37.4 °F 29.8 °F 28.4 °F 70% 29.90 in 10.0 mi West 11.5 mph - N/A   Mostly Cloudy
4:15 AM 37.4 °F 29.8 °F 28.4 °F 70% 29.90 in 10.0 mi West 11.5 mph - N/A   Mostly Cloudy
4:35 AM 37.4 °F 28.9 °F 28.4 °F 70% 29.88 in 10.0 mi WNW 13.8 mph 17.3 mph N/A   Overcast
4:55 AM 37.4 °F 28.9 °F 26.6 °F 65% 29.94 in 10.0 mi West 13.8 mph - N/A   Overcast
5:35 AM 37.4 °F 32.1 °F 26.6 °F 65% 29.92 in 10.0 mi West 6.9 mph - N/A   Overcast
6:15 AM 37.4 °F 29.3 °F 26.6 °F 65% 29.98 in 10.0 mi West 12.7 mph - N/A   Overcast
6:35 AM 37.4 °F 29.8 °F 26.6 °F 65% 29.96 in 10.0 mi WNW 11.5 mph - N/A   Overcast
6:55 AM 37.4 °F 30.3 °F 26.6 °F 65% 29.97 in 10.0 mi West 10.4 mph - N/A   Overcast
7:15 AM 37.4 °F 30.3 °F 26.6 °F 65% 29.99 in 10.0 mi West 10.4 mph - N/A   Overcast
7:35 AM 37.4 °F 28.9 °F 26.6 °F 65% 29.97 in 10.0 mi WNW 13.8 mph 17.3 mph N/A   Mostly Cloudy
7:55 AM 37.4 °F 30.8 °F 26.6 °F 65% 30.00 in 10.0 mi West 9.2 mph - N/A   Mostly Cloudy
8:15 AM 37.4 °F 29.3 °F 26.6 °F 65% 29.99 in 10.0 mi West 12.7 mph - N/A   Mostly Cloudy
8:35 AM 37.4 °F 28.2 °F 24.8 °F 60% 29.99 in 10.0 mi West 16.1 mph 24.2 mph N/A   Mostly Cloudy
8:55 AM 37.4 °F 28.2 °F 24.8 °F 60% 30.01 in 10.0 mi WNW 16.1 mph 23.0 mph N/A   Overcast
9:15 AM 37.4 °F 28.2 °F 24.8 °F 60% 30.00 in 10.0 mi WNW 16.1 mph 23.0 mph N/A   Overcast
9:35 AM 37.4 °F 28.2 °F 24.8 °F 60% 30.02 in 10.0 mi WNW 16.1 mph 20.7 mph N/A   Overcast
9:55 AM 37.4 °F 28.9 °F 24.8 °F 60% 30.03 in 10.0 mi WNW 13.8 mph - N/A   Overcast
10:15 AM 37.4 °F 28.5 °F 24.8 °F 60% 30.03 in 10.0 mi WNW 15.0 mph 21.9 mph N/A   Overcast
10:55 AM 37.4 °F 28.2 °F 23.0 °F 56% 30.02 in 10.0 mi WNW 16.1 mph 21.9 mph N/A   Overcast
11:15 AM 37.4 °F 27.2 °F 23.0 °F 56% 30.01 in 10.0 mi NW 19.6 mph 24.2 mph N/A   Overcast
11:35 AM 37.4 °F 28.2 °F 23.0 °F 56% 30.01 in 10.0 mi WNW 16.1 mph - N/A   Overcast
11:55 AM 37.4 °F 28.5 °F 23.0 °F 56% 30.02 in 10.0 mi WNW 15.0 mph - N/A   Overcast
12:15 PM 37.4 °F 28.2 °F 24.8 °F 60% 30.01 in 10.0 mi WNW 16.1 mph 20.7 mph N/A   Overcast
12:35 PM 39.2 °F 31.2 °F 24.8 °F 56% 30.02 in 10.0 mi WNW 13.8 mph 21.9 mph N/A   Overcast
12:55 PM 37.4 °F 27.8 °F 23.0 °F 56% 30.01 in 10.0 mi WNW 17.3 mph 23.0 mph N/A   Overcast
1:15 PM 37.4 °F 27.8 °F 23.0 °F 56% 30.02 in 10.0 mi WNW 17.3 mph 20.7 mph N/A   Overcast
1:35 PM 37.4 °F 28.2 °F 23.0 °F 56% 30.01 in 10.0 mi WNW 16.1 mph 23.0 mph N/A   Overcast
1:55 PM 37.4 °F 28.2 °F 23.0 °F 56% 30.02 in 10.0 mi West 16.1 mph 21.9 mph N/A   Overcast
2:15 PM 37.4 °F 27.2 °F 21.2 °F 52% 30.03 in 10.0 mi WNW 19.6 mph 24.2 mph N/A   Overcast
2:35 PM 37.4 °F 27.2 °F 21.2 °F 52% 30.04 in 10.0 mi WNW 19.6 mph 27.6 mph N/A   Overcast
2:55 PM 37.4 °F 27.5 °F 21.2 °F 52% 30.05 in 10.0 mi WNW 18.4 mph 24.2 mph N/A   Overcast
3:15 PM 37.4 °F 27.2 °F 21.2 °F 52% 30.06 in 10.0 mi WNW 19.6 mph 24.2 mph N/A   Overcast
3:35 PM 35.6 °F 25.2 °F 21.2 °F 56% 30.06 in 10.0 mi WNW 18.4 mph - N/A   Overcast
3:55 PM 35.6 °F 26.6 °F 21.2 °F 56% 30.07 in 10.0 mi WNW 13.8 mph 24.2 mph N/A   Overcast
4:15 PM 35.6 °F 27.5 °F 19.4 °F 52% 30.08 in 10.0 mi WNW 11.5 mph 21.9 mph N/A   Overcast
4:35 PM 35.6 °F 27.1 °F 21.2 °F 56% 30.09 in 10.0 mi WNW 12.7 mph 16.1 mph N/A   Overcast
4:55 PM 35.6 °F 27.5 °F 21.2 °F 56% 30.09 in 10.0 mi WNW 11.5 mph - N/A   Overcast
5:15 PM 35.6 °F 27.5 °F 21.2 °F 56% 30.09 in 10.0 mi WNW 11.5 mph - N/A   Overcast
5:35 PM 35.6 °F 27.5 °F 21.2 °F 56% 30.10 in 10.0 mi WNW 11.5 mph - N/A   Overcast
5:55 PM 35.6 °F 28.0 °F 21.2 °F 56% 30.11 in 10.0 mi WNW 10.4 mph - N/A   Overcast
6:15 PM 35.6 °F 29.2 °F 21.2 °F 56% 30.12 in 10.0 mi West 8.1 mph - N/A   Overcast
6:35 PM 35.6 °F 26.2 °F 21.2 °F 56% 30.13 in 10.0 mi WNW 15.0 mph 19.6 mph N/A   Overcast
6:55 PM 35.6 °F 26.2 °F 21.2 °F 56% 30.13 in 10.0 mi WNW 15.0 mph - N/A   Overcast
7:15 PM 35.6 °F 27.5 °F 21.2 °F 56% 30.13 in 10.0 mi WNW 11.5 mph 18.4 mph N/A   Overcast
7:35 PM 35.6 °F 29.2 °F 19.4 °F 52% 30.13 in 10.0 mi WNW 8.1 mph - N/A   Scattered Clouds
7:55 PM 33.8 °F 28.6 °F 19.4 °F 56% 30.13 in 10.0 mi West 5.8 mph - N/A   Clear
8:35 PM 33.8 °F 28.6 °F 19.4 °F 56% 30.14 in 10.0 mi WSW 5.8 mph - N/A   Clear
8:55 PM 33.8 °F 27.7 °F 21.2 °F 60% 30.15 in 10.0 mi WSW 6.9 mph - N/A   Clear
9:15 PM 32.0 °F 25.6 °F 21.2 °F 64% 30.15 in 10.0 mi SW 6.9 mph - N/A   Clear
9:35 PM 32.0 °F 24.8 °F 21.2 °F 64% 30.14 in 10.0 mi SW 8.1 mph - N/A   Clear
9:55 PM 32.0 °F 24.8 °F 21.2 °F 64% 30.15 in 10.0 mi SW 8.1 mph - N/A   Clear
10:15 PM 30.2 °F 21.3 °F 23.0 °F 75% 30.14 in 10.0 mi SW 10.4 mph - N/A   Clear
10:35 PM 30.2 °F 21.3 °F 23.0 °F 75% 30.15 in 10.0 mi SW 10.4 mph - N/A   Clear
10:55 PM 32.0 °F 23.6 °F 23.0 °F 69% 30.15 in 10.0 mi WSW 10.4 mph - N/A   Clear
11:15 PM 32.0 °F 23.6 °F 23.0 °F 69% 30.15 in 10.0 mi SW 10.4 mph - N/A   Clear
11:35 PM 32.0 °F 24.2 °F 23.0 °F 69% 30.15 in 10.0 mi WSW 9.2 mph - N/A   Clear
11:55 PM 30.2 °F 22.6 °F 21.2 °F 69% 30.15 in 10.0 mi SW 8.1 mph - N/A   Clear